Vorticity
nan nan nan nan nan nan nan nan nan nan nan nan nan nan nan nan nan nan nan nan nan nan nan nan nan nan nan nan nan nan nan nan nan nan nan nan nan nan nan nan nan nan nan
nan 9 9 9 10 9 10 10 11 10 10 10 10 11 10 9 9 9 8 8 9 8 9 10 9 10 9 9 10 10 10 7 10 11 8 11 11 14 14 11 10 10 nan
nan 9 9 9 9 10 10 10 9 10 10 10 10 10 10 10 9 9 9 9 9 9 10 9 10 9 9 12 11 11 11 11 7 8 9 8 10 11 13 11 12 13 nan
nan 9 9 10 9 10 10 11 9 9 9 9 10 9 9 9 9 10 10 9 9 10 10 9 11 11 11 12 14 12 11 10 10 7 8 10 9 9 10 11 8 12 nan
nan 9 10 9 10 10 10 10 10 10 10 10 8 8 9 9 9 9 10 10 11 10 9 9 10 12 17 15 12 13 10 9 9 8 8 10 10 11 10 10 11 10 nan
nan 9 9 11 10 9 9 9 9 9 10 9 10 10 8 9 11 9 7 9 11 10 8 9 8 11 14 14 15 12 8 8 7 7 9 10 10 9 14 10 9 9 nan
nan 10 11 10 9 9 9 9 10 9 9 9 9 9 10 12 11 10 7 8 11 9 9 9 9 8 9 12 13 11 10 9 10 9 10 9 10 9 8 12 10 10 nan
nan 9 10 11 10 9 10 8 9 11 10 10 11 10 9 10 11 9 12 9 10 10 10 9 9 10 9 7 6 7 9 11 9 8 7 7 9 10 7 8 10 11 nan
nan 9 11 10 9 10 10 8 8 10 9 9 10 10 9 12 14 11 10 11 11 10 10 10 9 10 11 7 6 8 7 9 12 10 6 10 11 7 6 7 11 9 nan
nan 9 10 10 9 9 10 9 8 10 10 9 8 14 13 9 12 16 11 9 9 10 12 13 11 10 12 5 4 9 9 12 10 9 11 12 12 12 9 6 10 9 nan
nan 9 10 9 9 9 8 11 12 11 11 9 10 12 10 12 16 10 7 10 10 10 10 11 16 14 10 8 5 6 7 9 11 10 10 10 10 11 11 11 9 10 nan
nan 12 12 12 11 12 10 8 12 12 10 8 9 10 11 15 13 10 12 2 5 12 11 10 15 16 9 7 6 7 11 8 10 10 10 10 10 10 11 11 12 10 nan
nan 12 10 11 12 12 11 9 9 10 10 10 10 10 9 9 13 13 8 10 8 6 10 11 9 15 19 15 13 11 7 7 10 10 10 9 10 10 10 12 13 11 nan
nan 12 13 12 10 10 11 11 12 11 10 11 11 11 10 9 9 10 8 15 12 7 9 11 12 17 16 13 14 12 9 11 9 9 9 9 10 12 13 13 10 11 nan
nan 11 10 11 10 9 10 11 9 11 13 11 11 12 10 12 14 12 8 7 7 11 12 10 11 11 11 11 10 11 10 10 9 10 10 10 9 10 12 12 10 11 nan
nan 12 12 11 10 11 9 9 8 10 12 9 13 18 15 10 6 5 9 10 13 18 9 9 11 11 10 10 10 10 11 10 10 10 9 9 10 9 11 10 12 12 nan
nan 10 12 13 13 10 11 11 8 10 11 10 14 13 14 7 7 14 16 18 19 10 7 12 12 11 11 10 11 11 11 11 11 10 10 11 11 12 13 11 10 10 nan
nan 10 10 11 12 12 12 11 12 11 8 6 8 11 12 14 13 17 20 14 10 11 13 10 12 11 12 11 11 10 11 12 11 11 11 11 11 12 11 11 12 10 nan
nan 10 10 10 10 10 11 12 13 12 12 10 7 10 10 11 13 12 10 7 10 13 12 11 12 11 10 11 11 12 11 11 11 13 13 12 11 10 10 11 12 11 nan
nan 11 10 10 9 10 12 12 11 11 11 11 11 9 7 8 9 9 11 11 10 10 12 14 11 11 13 12 11 11 10 10 11 13 13 13 13 11 10 11 11 12 nan
nan 10 9 10 12 12 12 11 10 10 10 11 9 10 11 11 10 10 9 10 11 11 11 13 13 12 12 11 11 12 12 12 13 13 11 10 10 11 12 11 12 14 nan
nan 10 10 11 12 10 11 12 11 12 13 11 10 10 11 12 10 9 10 11 13 12 12 13 11 10 10 11 12 12 12 13 12 11 10 10 12 12 12 11 11 10 nan
nan 10 10 11 11 10 11 12 12 12 14 14 11 10 10 10 10 10 11 12 12 11 12 12 10 10 11 12 12 11 11 12 12 11 10 9 9 11 11 11 10 8 nan
nan 12 11 10 11 11 11 11 11 11 11 13 12 11 11 11 12 11 11 11 11 11 11 11 11 11 10 9 9 10 10 9 10 11 10 10 11 10 9 10 10 10 nan
nan 12 14 12 13 13 12 11 11 10 11 11 11 13 13 12 12 11 11 11 11 11 10 11 11 11 11 10 9 9 10 9 8 8 9 11 11 9 9 10 9 11 nan
nan nan nan nan nan nan nan nan nan nan nan nan nan nan nan nan nan nan nan nan nan nan nan nan nan nan nan nan nan nan nan nan nan nan nan nan nan nan nan nan nan nan nan
CAPE
2380 2365 2485 2576 2543 2162 1798 1561 1320 993 810 551 382 275 255 110 86 60 27 27 120 177 259 385 390 312 205 244 190 122 16 6 47 29 85 158 102 115 202 257 87 98 95
2639 2760 2707 2636 2457 2245 1857 1815 1563 1317 1092 827 656 581 433 323 180 138 132 269 284 332 381 189 260 287 190 116 137 102 40 0 0 26 23 103 152 87 69 194 148 157 131
2386 2482 2231 2440 2343 2216 2036 1769 1556 1496 1418 1257 1034 795 585 464 506 447 440 477 547 503 410 287 162 125 156 152 175 135 59 70 65 44 32 47 53 90 169 145 90 138 93
1903 1896 2002 1999 2051 1921 1862 1664 1556 1577 1537 1325 1142 1001 904 854 807 801 819 780 751 684 415 220 141 104 107 92 129 71 67 76 102 51 2 3 12 19 47 207 215 76 111
1766 1832 1981 1895 1775 1650 1647 1719 1626 1499 1460 1335 1240 1113 1028 1118 1175 1041 993 965 773 400 138 83 135 46 47 12 0 1 1 33 8 0 1 3 5 28 25 45 190 163 105
1655 1729 1983 1758 1643 1591 1520 1483 1420 1373 1241 1153 1224 1306 1297 1393 1569 1446 1237 1093 651 241 33 0 9 0 12 0 0 0 0 0 10 7 1 37 68 103 86 44 96 85 117
1666 1618 1840 1584 1542 1456 1462 1411 1274 1252 1173 1247 1328 1382 1298 1267 1517 1521 1091 952 482 239 31 0 1 0 0 0 0 0 0 0 0 0 5 17 69 110 140 104 153 130 140
1861 1989 1915 1654 1552 1564 1509 1483 1361 1271 1385 1423 1468 1394 1439 1443 1542 1392 500 792 357 189 52 0 0 0 0 0 0 0 0 0 0 2 6 63 136 66 150 159 155 135 158
2180 2487 2274 1857 2025 1897 1612 1496 1575 1771 1694 1698 1738 1730 1635 1548 1496 1231 384 570 459 225 127 16 0 0 0 0 0 0 0 0 0 0 0 7 105 95 72 69 149 197 207
2362 2210 2313 1933 1810 2000 2092 1908 1873 1955 2032 1878 1715 1643 1556 1336 860 170 84 463 633 464 352 153 6 0 0 0 0 0 0 0 6 0 3 0 0 0 0 17 144 144 169
2386 2246 2248 2182 1919 1876 1944 1940 2053 2055 1860 1560 1359 1052 943 791 517 243 0 76 384 391 679 664 377 15 0 0 0 0 0 0 0 0 0 0 0 0 0 0 10 245 180
2662 2472 2319 2352 2277 2105 2110 1606 1566 1381 1166 961 820 797 789 612 527 301 324 0 2 282 472 513 638 307 0 0 0 0 5 5 0 0 0 0 0 0 2 0 0 15 27
2768 2637 2458 2260 2259 2023 1641 1231 751 505 666 578 603 602 500 484 299 288 151 0 0 0 0 0 0 0 0 0 0 0 0 0 0 0 0 0 0 0 0 0 0 0 0
2012 1869 1558 1167 674 560 690 528 424 284 242 75 75 197 162 60 15 19 1 1 0 0 0 0 0 0 1 0 1 0 0 0 0 0 0 0 0 0 0 0 3 0 0
1330 1305 721 354 354 165 68 94 39 0 0 0 0 0 0 1 0 24 76 100 80 19 0 0 0 0 0 1 0 0 0 0 0 0 0 0 0 0 0 0 0 0 0
588 413 706 396 6 0 0 16 1 0 1 1 1 0 0 1 1 1 2 2 2 1 1 0 0 0 0 0 0 0 0 0 0 0 0 0 0 0 0 0 0 0 0
272 257 334 187 299 132 96 20 63 1 1 1 0 1 1 0 1 1 2 1 2 1 0 0 0 0 0 0 0 0 0 0 0 0 0 0 0 0 0 0 0 0 0
22 132 256 217 54 45 113 90 0 0 0 1 1 1 1 1 1 1 1 1 1 1 0 0 0 0 0 0 0 0 0 0 0 0 0 0 0 0 0 0 0 0 0
420 393 313 235 117 93 42 53 34 20 0 0 0 0 1 1 1 0 0 0 0 0 0 0 0 0 0 0 0 0 0 0 0 0 0 0 0 0 0 0 0 0 0
456 577 276 346 120 272 49 385 51 4 0 0 0 0 0 1 0 0 0 0 0 0 1 0 0 0 0 0 0 0 0 0 0 0 0 0 0 0 0 0 0 0 0
218 229 242 127 333 63 0 0 0 0 3 0 0 0 1 0 0 0 0 0 0 0 0 0 0 0 0 0 0 0 0 0 0 0 0 0 0 0 0 0 0 0 0
217 121 172 194 122 190 57 23 1 1 7 1 0 0 2 0 0 0 0 0 0 0 0 0 0 0 0 0 0 0 0 0 0 0 0 0 0 0 0 0 0 0 0
214 254 239 108 42 19 28 5 0 1 1 9 0 0 0 0 0 0 0 0 0 0 0 0 0 0 0 0 0 0 0 0 0 0 0 0 0 0 0 0 0 0 0
132 77 32 44 89 84 53 31 8 0 0 0 0 0 0 0 0 0 0 0 0 0 0 0 0 0 0 0 0 0 0 0 0 0 0 0 0 0 0 0 0 0 0
9 11 51 22 52 69 80 30 28 29 19 16 15 10 6 4 13 0 0 0 0 0 0 0 0 0 0 0 0 0 0 0 0 0 0 0 0 0 0 0 0 0 0
0 0 0 0 0 0 0 0 0 0 29 27 25 35 37 8 4 9 3 0 0 0 0 0 0 0 0 0 0 0 0 0 0 0 0 0 0 0 0 0 0 0 0